Date String (YYYY-MM-DD hh:mm:ss) UTC,Instrument flags,absolute air pressure of the measurement (hPa),sample flow rate (lpm),inlet stack bypass flow (lpm),air temperature of the measurement (°C),ambient temperature measured by the external sensor (°C),aerosol sample conditioner tube jacket temperature (°C),OPC LED temperature (°C),internal box temperature (°C),relative humidity of the measurement (%),span deviation,mass concentration of particles derived from Lorenz-Mie calculation of OPC scattering (μg/m³),mass concentration of particles derived from Lorenz-Mie calculation of OPC scattering (μg/m³),mass concentration of particles derived from Lorenz-Mie calculation of OPC scattering (μg/m³)
DateTimeUTC,F1_M11,P_M11,Q1_M11,Q2_M11,T1_M11,T2_M11,T3_M11,T4_M11,T5_M11,U1_M11,ZSPAN_M11,X0_M11,X2_M11,X1_M11
2024-03-11 20:00:00,SystemResetWarning,0824.0,4.99,000.00,021.2,020.7,000.0,029.4,023.0,09.4,0000.0,0012.82,0004.09,0001.58
2024-03-11 20:01:00,SystemResetWarning,0824.0,4.98,000.00,021.2,020.7,000.0,029.5,023.0,09.2,0000.0,0012.53,0004.09,0001.58
2024-03-11 20:02:00,SystemResetWarning,0824.2,5.00,000.00,021.3,020.8,000.0,029.5,023.0,09.3,0000.0,0011.79,0004.04,0001.57
2024-03-11 20:03:00,SystemResetWarning,0824.1,5.00,000.00,021.3,020.8,000.0,029.5,023.0,09.6,0000.0,0011.89,0003.99,0001.56
2024-03-11 20:04:00,SystemResetWarning,0824.0,5.00,000.00,021.3,020.8,000.0,029.5,023.0,09.7,0000.0,0012.75,0004.00,0001.58
2024-03-11 20:05:00,SystemResetWarning,0824.1,5.00,000.00,021.3,020.8,000.0,029.5,023.1,09.6,0000.0,0013.49,0004.02,0001.60
2024-03-11 20:06:00,SystemResetWarning,0824.1,5.00,000.00,021.3,020.8,000.0,029.5,023.1,09.6,0000.0,0013.65,0004.02,0001.61
2024-03-11 20:07:00,SystemResetWarning,0824.1,5.00,000.00,021.3,020.8,000.0,029.5,023.1,09.6,0000.0,0013.41,0003.97,0001.62
2024-03-11 20:08:00,SystemResetWarning,0824.2,5.00,000.00,021.3,020.8,000.0,029.6,023.1,09.9,0000.0,0013.55,0003.98,0001.64
2024-03-11 20:09:00,SystemResetWarning,0824.3,5.00,000.00,021.4,020.9,000.0,029.6,023.1,09.9,0000.0,0013.84,0004.03,0001.66
2024-03-11 20:10:00,SystemResetWarning,0824.3,5.00,000.00,021.4,020.9,000.0,029.6,023.1,09.8,0000.0,0013.53,0003.96,0001.64
2024-03-11 20:11:00,SystemResetWarning,0824.2,5.01,000.00,021.4,020.9,000.0,029.6,023.1,09.7,0000.0,0012.72,0003.88,0001.65
2024-03-11 20:12:00,SystemResetWarning,0824.3,5.01,000.00,021.4,020.9,000.0,029.6,023.1,09.8,0000.0,0012.43,0003.88,0001.65
2024-03-11 20:13:00,SystemResetWarning,0824.3,5.00,000.00,021.4,020.9,000.0,029.6,023.2,09.6,0000.0,0012.47,0003.90,0001.66
2024-03-11 20:14:00,SystemResetWarning,0824.3,5.00,000.00,021.4,020.9,000.0,029.6,023.2,09.7,0000.0,0012.16,0003.94,0001.65
2024-03-11 20:15:00,SystemResetWarning,0824.2,5.00,000.00,021.4,020.9,000.0,029.6,023.2,09.5,0000.0,0011.53,0003.91,0001.62
2024-03-11 20:16:00,SystemResetWarning,0824.1,5.00,000.00,021.4,020.9,000.0,029.7,023.2,09.2,0000.0,0010.53,0003.85,0001.61
2024-03-11 20:17:00,SystemResetWarning,0824.1,5.00,000.00,021.5,021.0,000.0,029.7,023.2,08.9,0000.0,0010.10,0003.87,0001.59
2024-03-11 20:18:00,SystemResetWarning,0824.0,4.99,000.00,021.5,021.0,000.0,029.7,023.2,09.0,0000.0,0010.90,0003.91,0001.58
2024-03-11 20:19:00,SystemResetWarning,0824.0,4.99,000.00,021.5,021.0,000.0,029.7,023.2,09.1,0000.0,0011.01,0003.94,0001.58
2024-03-11 20:20:00,SystemResetWarning,0824.0,5.01,000.00,021.5,021.0,000.0,029.7,023.3,09.5,0000.0,0010.81,0003.94,0001.58
2024-03-11 20:21:00,SystemResetWarning,0824.1,5.00,000.00,021.5,021.0,000.0,029.7,023.3,09.6,0000.0,0011.27,0003.97,0001.58
2024-03-11 20:22:00,SystemResetWarning,0824.0,5.00,000.00,021.5,021.0,000.0,029.8,023.3,08.9,0000.0,0011.24,0003.98,0001.58
2024-03-11 20:23:00,SystemResetWarning,0824.0,5.00,000.00,021.6,021.0,000.0,029.8,023.3,09.1,0000.0,0011.37,0003.96,0001.57
2024-03-11 20:24:00,SystemResetWarning,0824.1,5.01,000.00,021.6,021.1,000.0,029.8,023.3,09.3,0000.0,0011.40,0003.94,0001.58
2024-03-11 20:25:00,SystemResetWarning,0824.0,5.00,000.00,021.6,021.1,000.0,029.8,023.4,08.9,0000.0,0012.39,0003.94,0001.58
2024-03-11 20:26:00,SystemResetWarning,0824.0,5.00,000.00,021.6,021.1,000.0,029.8,023.4,08.9,0000.0,0012.72,0003.91,0001.59
2024-03-11 20:27:00,SystemResetWarning,0824.0,4.99,000.00,021.6,021.1,000.0,029.8,023.4,09.1,0000.0,0012.87,0003.96,0001.60
2024-03-11 20:28:00,SystemResetWarning,0824.0,4.99,000.00,021.6,021.1,000.0,029.8,023.4,09.0,0000.0,0013.17,0003.93,0001.59
2024-03-11 20:29:00,SystemResetWarning,0824.0,5.01,000.00,021.7,021.1,000.0,029.9,023.4,09.2,0000.0,0012.20,0003.89,0001.59
2024-03-11 20:30:00,SystemResetWarning,0824.0,5.00,000.00,021.7,021.2,000.0,029.9,023.4,08.9,0000.0,0012.15,0003.84,0001.60
2024-03-11 20:31:00,SystemResetWarning,0824.0,5.01,000.00,021.7,021.2,000.0,029.9,023.5,09.0,0000.0,0012.63,0003.85,0001.62
2024-03-11 20:32:00,SystemResetWarning,0824.0,5.00,000.00,021.7,021.2,000.0,029.9,023.5,09.0,0000.0,0012.50,0003.85,0001.63
2024-03-11 20:33:00,SystemResetWarning,0824.0,5.00,000.00,021.7,021.2,000.0,029.9,023.5,08.9,0000.0,0013.05,0003.87,0001.65
2024-03-11 20:34:00,SystemResetWarning,0823.9,5.00,000.00,021.7,021.2,000.0,029.9,023.5,08.9,0000.0,0013.69,0003.89,0001.67
2024-03-11 20:35:00,SystemResetWarning,0824.0,5.00,000.00,021.8,021.3,000.0,030.0,023.5,09.4,0000.0,0013.87,0003.92,0001.66
2024-03-11 20:36:00,SystemResetWarning,0824.0,5.00,000.00,021.8,021.3,000.0,030.0,023.6,09.4,0000.0,0013.44,0003.94,0001.67
2024-03-11 20:37:00,SystemResetWarning,0824.0,5.00,000.00,021.8,021.3,000.0,030.0,023.6,08.8,0000.0,0012.85,0003.98,0001.69
2024-03-11 20:38:00,SystemResetWarning,0824.0,5.00,000.00,021.8,021.3,000.0,030.0,023.6,09.0,0000.0,0012.81,0003.97,0001.69
2024-03-11 20:39:00,SystemResetWarning,0823.9,5.00,000.00,021.8,021.3,000.0,030.0,023.6,09.1,0000.0,0012.49,0003.96,0001.69
2024-03-11 20:40:00,SystemResetWarning,0823.9,5.00,000.00,021.9,021.3,000.0,030.1,023.7,09.2,0000.0,0012.57,0004.00,0001.72
2024-03-11 20:41:00,SystemResetWarning,0823.9,4.99,000.00,021.9,021.4,000.0,030.1,023.7,09.4,0000.0,0012.52,0004.02,0001.72
2024-03-11 20:42:00,SystemResetWarning,0823.8,5.00,000.00,021.9,021.4,000.0,030.1,023.7,09.3,0000.0,0012.04,0004.00,0001.72
2024-03-11 20:43:00,SystemResetWarning,0823.9,5.01,000.00,021.9,021.4,000.0,030.1,023.7,09.6,0000.0,0012.00,0003.99,0001.72
2024-03-11 20:44:00,SystemResetWarning,0823.8,5.00,000.00,021.9,021.4,000.0,030.1,023.7,09.2,0000.0,0012.15,0003.95,0001.70
2024-03-11 20:45:00,SystemResetWarning,0823.8,5.00,000.00,021.9,021.4,000.0,030.2,023.7,09.0,0000.0,0011.84,0004.01,0001.72
2024-03-11 20:46:00,SystemResetWarning,0823.8,5.00,000.00,022.0,021.5,000.0,030.2,023.8,08.9,0000.0,0011.65,0003.94,0001.73
2024-03-11 20:47:00,SystemResetWarning,0823.8,5.01,000.00,022.0,021.5,000.0,030.2,023.8,08.9,0000.0,0011.65,0003.96,0001.73
2024-03-11 20:48:00,SystemResetWarning,0823.8,5.01,000.00,022.0,021.5,000.0,030.2,023.8,08.9,0000.0,0012.04,0003.97,0001.71
2024-03-11 20:49:00,SystemResetWarning,0823.7,5.00,000.00,022.0,021.5,000.0,030.2,023.8,09.3,0000.0,0012.55,0003.97,0001.72
2024-03-11 20:50:00,SystemResetWarning,0823.8,4.98,000.00,022.0,021.5,000.0,030.2,023.8,09.3,0000.0,0012.43,0003.93,0001.72
2024-03-11 20:51:00,SystemResetWarning,0823.8,5.00,000.00,022.0,021.5,000.0,030.3,023.8,09.1,0000.0,0012.79,0003.92,0001.70
2024-03-11 20:52:00,SystemResetWarning,0823.8,5.01,000.00,022.1,021.6,000.0,030.3,023.9,08.8,0000.0,0012.95,0003.93,0001.70
2024-03-11 20:53:00,SystemResetWarning,0823.8,5.00,000.00,022.1,021.6,000.0,030.3,023.9,08.9,0000.0,0012.88,0003.90,0001.67
2024-03-11 20:54:00,SystemResetWarning,0823.8,4.99,000.00,022.1,021.6,000.0,030.3,023.9,09.4,0000.0,0012.82,0003.91,0001.68
2024-03-11 20:55:00,SystemResetWarning,0823.8,4.99,000.00,022.1,021.6,000.0,030.3,023.9,09.6,0000.0,0013.63,0003.97,0001.68
2024-03-11 20:56:00,SystemResetWarning,0823.8,5.00,000.00,022.1,021.6,000.0,030.3,023.9,09.3,0000.0,0014.49,0003.97,0001.66
2024-03-11 20:57:00,SystemResetWarning,0823.8,5.01,000.00,022.1,021.6,000.0,030.4,023.9,09.4,0000.0,0015.03,0004.04,0001.63
2024-03-11 20:58:00,SystemResetWarning,0823.7,5.01,000.00,022.1,021.6,000.0,030.4,023.9,09.4,0000.0,0014.97,0003.99,0001.63
2024-03-11 20:59:00,SystemResetWarning,0823.7,4.99,000.00,022.1,021.6,000.0,030.4,023.9,09.5,0000.0,0014.62,0003.96,0001.63
